Location: Oshawa
(43.9000°N, 78.8670°W)
Time: 12:36:57
(UTC-04:00)

Amateur Radio Satellites - All Passes

Search period start: 24 July 2016 12:06
Search period end: 25 July 2016 12:06
Location: Oshawa, 43.9000°N, 78.8670°W

Satellite Date Start Highest point End Downlink Frequencies (MHz)
Time Altitude Azimuth
QB50P2 24 Jul 12:07:31 12:11:43 67° 258° (WSW) 12:16:00 145.880/145.840
POLYITAN 1 24 Jul 12:10:09 12:14:22 66° 258° (WSW) 12:18:39 437.675
ZACube-1 24 Jul 12:17:39 12:19:09 11° 301° (WNW) 12:20:38 437.345
UKube-1 24 Jul 12:18:27 12:20:24 13° 90° (E) 12:22:22 .
FUNcube-1 24 Jul 12:18:28 12:20:07 12° 301° (WNW) 12:21:45 145.935
HUMSAT D 24 Jul 12:23:26 12:27:10 31° 291° (WNW) 12:30:51 437.325/437.525
AUBIESAT-1 24 Jul 12:29:17 12:33:17 30° 298° (WNW) 12:37:19 437.475
VELOX 1 24 Jul 12:37:00 12:41:05 35° 97° (E) 12:45:09 145.980
DELFI C3 24 Jul 12:38:02 12:39:06 11° 299° (WNW) 12:40:10 145.870
CUBEBUG 1 24 Jul 12:46:49 12:51:07 52° 100° (E) 12:55:25 437.445
SPROUT 24 Jul 12:56:52 13:00:35 28° 95° (E) 13:04:17 437.525
NANOSAT C BR1 24 Jul 12:57:40 13:00:58 22° 266° (W) 13:04:18 145.865
DUCHIFAT 1 24 Jul 13:03:46 13:06:55 20° 267° (W) 13:10:06 145.980
Cosmos 2504 24 Jul 13:03:58 13:12:25 48° 287° (WNW) 13:20:56 435.465 / 435.565
Oscar 19 24 Jul 13:04:00 13:08:36 35° 67° (ENE) 13:13:13 437.125/150
YUBILEINY 24 Jul 13:12:54 13:18:25 18° 303° (WNW) 13:24:01 435.215
50 SAT 24 Jul 13:17:16 13:20:51 68° 285° (WNW) 13:24:25 437.505
QB50P1 24 Jul 13:19:44 13:21:42 13° 270° (W) 13:23:39 145.935-145.965
AISAT 24 Jul 13:21:13 13:25:41 75° 286° (WNW) 13:30:08 437.250
AO-7 24 Jul 13:21:20 13:24:49 13° 40° (NE) 13:28:18 29.400- 29.500
POPSAT HIP 1 24 Jul 13:26:35 13:27:53 11° 271° (W) 13:29:12 437.405
BUGSAT 1 24 Jul 13:31:59 13:35:06 21° 266° (W) 13:38:16 437.445
DX 1 24 Jul 13:32:35 13:36:58 81° 287° (WNW) 13:41:21 434.975-435.025
AIST 1 24 Jul 13:36:36 13:39:56 23° 88° (E) 13:43:17
ESTCUBE 1 24 Jul 13:43:06 13:46:58 29° 293° (WNW) 13:50:49 437.505/2401.250
JAS-2 24 Jul 13:46:23 13:52:00 35° 262° (W) 13:57:06 435.910
UKube-1 24 Jul 13:52:34 13:56:51 62° 287° (WNW) 14:01:08 .
RS-15 24 Jul 13:54:37 14:05:03 31° 17° (NNE) 14:15:33 29.354- 29.394
Gurwin Techsat 1B 24 Jul 13:57:34 14:02:40 49° 70° (ENE) 14:07:48 435.225
TISAT 1 24 Jul 14:04:07 14:08:02 35° 97° (E) 14:11:56 437.305
AO-85 24 Jul 14:09:27 14:13:08 19° 110° (ESE) 14:16:45 145.980
VELOX 1 24 Jul 14:13:48 14:17:22 24° 294° (WNW) 14:20:56 145.980
CUBEBUG 1 24 Jul 14:24:11 14:27:01 17° 297° (WNW) 14:29:50 437.445
BEESAT 24 Jul 14:30:38 14:33:04 14° 90° (E) 14:35:29 436.000
ITAMSAT 1 24 Jul 14:31:07 14:35:49 35° 67° (ENE) 14:40:33 435.822/435.867
SPROUT 24 Jul 14:32:46 14:36:29 28° 292° (WNW) 14:40:11 437.525
CUSAT 1 24 Jul 14:42:56 14:44:13 12° 73° (ENE) 14:45:34 437.405
Oscar 19 24 Jul 14:43:28 14:47:56 30° 264° (W) 14:52:27 437.125/150
ITUPSAT 1 24 Jul 14:50:36 14:54:16 21° 93° (E) 14:57:54 437.325
Cosmos 2504 24 Jul 15:07:35 15:08:25 10° 311° (NW) 15:09:15 435.465 / 435.565
AO-7 24 Jul 15:07:41 15:15:37 51° 62° (ENE) 15:23:36 29.400- 29.500
AIST 1 24 Jul 15:13:36 15:17:21 30° 285° (WNW) 15:21:09
GONETS M04 24 Jul 15:20:01 15:27:25 33° 83° (E) 15:34:51
Gurwin Techsat 1B 24 Jul 15:38:44 15:42:53 23° 267° (W) 15:47:03 435.225
TISAT 1 24 Jul 15:40:10 15:43:30 23° 294° (WNW) 15:46:49 437.305
SWISSCUBE 24 Jul 15:44:46 15:49:34 83° 105° (ESE) 15:54:19 437.505
AO-85 24 Jul 15:47:50 15:53:12 70° 306° (NW) 15:58:19 145.980
HORYU 2 24 Jul 15:53:06 15:54:56 12° 59° (ENE) 15:56:46 437.375
BEESAT 24 Jul 16:06:34 16:11:20 68° 287° (WNW) 16:16:03 436.000
RS-15 24 Jul 16:08:21 16:20:38 64° 48° (NE) 16:32:48 29.354- 29.394
ITAMSAT 1 24 Jul 16:10:40 16:15:17 31° 264° (W) 16:19:57 435.822/435.867
Cosmos 2499 24 Jul 16:12:22 16:20:50 52° 89° (E) 16:29:10 435.465 / 435.565
DANDE 24 Jul 16:16:59 16:19:34 62° 79° (E) 16:22:13 436.750
CUSAT 1 24 Jul 16:23:54 16:26:10 21° 264° (W) 16:28:42 437.405
ITUPSAT 1 24 Jul 16:27:46 16:32:18 44° 290° (WNW) 16:36:47 437.325
AO-7 24 Jul 17:00:47 17:08:31 41° 261° (W) 17:16:19 29.400- 29.500
KKS-1 24 Jul 17:03:01 17:07:29 59° 101° (E) 17:11:54 437.445
SO-50 24 Jul 17:04:18 17:08:16 26° 42° (NE) 17:12:08 436.795
Cubesat XI-IV 24 Jul 17:04:30 17:07:07 14° 56° (ENE) 17:09:45 437.490
MOZHAYETS 4 24 Jul 17:14:56 17:19:33 85° 107° (ESE) 17:24:06
GONETS M04 24 Jul 17:15:16 17:23:45 57° 284° (WNW) 17:32:21
SWISSCUBE 24 Jul 17:24:30 17:26:41 13° 301° (WNW) 17:28:50 437.505
HORYU 2 24 Jul 17:26:22 17:30:51 80° 257° (WSW) 17:35:22 437.375
CUTE-I 24 Jul 17:27:31 17:31:30 22° 61° (ENE) 17:35:29 437.470
AO-85 24 Jul 17:31:18 17:34:32 16° 326° (NW) 17:37:39 145.980
LilacSat-2 24 Jul 17:32:13 17:34:19 14° 64° (ENE) 17:36:26 437.200
NOAA 18 24 Jul 17:37:01 17:41:36 27° 63° (ENE) 17:46:13 137.9125
STARS 24 Jul 17:50:10 17:54:39 87° 279° (W) 17:59:05 437.465
NOAA 15 24 Jul 17:56:29 18:01:30 48° 69° (ENE) 18:06:32 137.62
GOMX 1 24 Jul 18:00:18 18:03:35 23° 66° (ENE) 18:06:58 467.674
HO-68 24 Jul 18:04:03 18:06:37 12° 46° (NE) 18:09:10 435.675
Cosmos 2499 24 Jul 18:05:59 18:14:10 40° 289° (WNW) 18:22:12 435.465 / 435.565
DOVE 4 24 Jul 18:09:49 18:12:06 14° 61° (ENE) 18:14:28 437.250
BRITE-PL 24 Jul 18:19:42 18:23:53 84° 75° (ENE) 18:28:03 437.365/2234.400
RS-15 24 Jul 18:21:25 18:32:45 45° 251° (WSW) 18:43:57 29.354- 29.394
CUBESAT XI-V 24 Jul 18:25:58 18:30:31 58° 100° (E) 18:35:03 437.345
PHONESAT 2.4 24 Jul 18:40:14 18:42:05 15° 154° (SSE) 18:43:56 2401.200-2431.200
KKS-1 24 Jul 18:40:51 18:43:35 16° 298° (WNW) 18:46:18 437.445
Cubesat XI-IV 24 Jul 18:41:00 18:46:23 87° 75° (ENE) 18:51:49 437.490
SO-50 24 Jul 18:44:31 18:48:57 46° 242° (WSW) 18:53:15 436.795
CINEMA 3 24 Jul 18:44:55 18:45:54 11° 57° (ENE) 18:46:55 145.822/145.860
MOZHAYETS 4 24 Jul 18:54:21 18:56:01 12° 301° (WNW) 18:57:40
LilacSat-2 24 Jul 19:04:28 19:08:13 49° 261° (W) 19:12:01 437.200
CUTE-I 24 Jul 19:05:50 19:11:07 58° 259° (W) 19:16:26 437.470
PCSat 24 Jul 19:06:12 19:06:52 10° 101° (E) 19:07:33 145.827
CANX-2 24 Jul 19:14:52 19:17:46 18° 65° (ENE) 19:20:40 2200.000
NOAA 18 24 Jul 19:16:43 19:22:00 46° 260° (W) 19:27:22 137.9125
GONETS M04 24 Jul 19:19:52 19:22:55 12° 309° (NW) 19:26:00
YUBILEINY 24 Jul 19:25:55 19:29:21 12° 52° (NE) 19:32:47 435.215
CUTE 1.7 + AOD 2 24 Jul 19:28:29 19:31:44 21° 66° (ENE) 19:34:59 437.475
STARS 24 Jul 19:29:27 19:30:16 10° 302° (WNW) 19:31:06 437.465
NOAA 15 24 Jul 19:37:23 19:41:31 23° 267° (W) 19:45:39 137.62
GOMX 1 24 Jul 19:37:50 19:41:33 32° 264° (W) 19:45:23 467.674
BEESAT 3 24 Jul 19:38:50 19:42:30 41° 118° (ESE) 19:46:14 437.485
BEESAT 2 24 Jul 19:39:37 19:42:44 23° 114° (ESE) 19:45:53 435.950
DOVE 4 24 Jul 19:45:04 19:49:15 61° 260° (W) 19:53:41 437.250
HO-68 24 Jul 19:45:51 19:52:47 55° 67° (ENE) 19:59:46 435.675
UWE-3 24 Jul 19:55:15 19:57:07 12° 59° (ENE) 19:58:59 435.000/436.395/437.385
CUBESAT XI-V 24 Jul 20:04:34 20:07:27 17° 298° (WNW) 20:10:19 437.345
CUBEBUG 2 24 Jul 20:09:00 20:12:36 23° 65° (ENE) 20:16:18 437.445
SEEDS 24 Jul 20:12:13 20:16:13 43° 72° (ENE) 20:20:14 437.485
PHONESAT 2.4 24 Jul 20:15:14 20:18:08 37° 170° (S) 20:21:01 2401.200-2431.200
CINEMA 3 24 Jul 20:17:44 20:22:11 85° 76° (ENE) 20:26:55 145.822/145.860
STRAND 1 24 Jul 20:20:50 20:25:50 52° 100° (E) 20:30:48 437.568
Cubesat XI-IV 24 Jul 20:24:52 20:27:08 13° 272° (W) 20:29:27 437.490
COMPASS 1 24 Jul 20:29:30 20:33:32 47° 72° (ENE) 20:37:33 437.405
PCSat 24 Jul 20:43:54 20:49:18 76° 119° (ESE) 20:54:44 145.827
Oscar 11 24 Jul 20:47:53 20:51:29 26° 67° (ENE) 20:55:05 145.826/435.025
CANX-2 24 Jul 20:49:09 20:53:17 46° 261° (W) 20:57:25 2200.000
Cosmos 2491 24 Jul 20:50:43 20:55:53 18° 76° (ENE) 21:01:03 435.465 / 435.565
AAUSAT CUBESAT 2 24 Jul 21:00:36 21:04:46 83° 76° (ENE) 21:08:57 437.432
CUTE 1.7 + AOD 2 24 Jul 21:03:23 21:07:21 37° 263° (W) 21:11:20 437.475
Cosmos 2504 24 Jul 21:03:39 21:08:25 16° 56° (NE) 21:13:01 435.465 / 435.565
PRISM 24 Jul 21:03:56 21:06:47 18° 93° (E) 21:09:37 437.425
O/OREOS (USA 219) 24 Jul 21:07:07 21:10:47 26° 103° (ESE) 21:14:28 437.305
M-CUBED/EXP-1 PRIME 24 Jul 21:13:59 21:17:10 27° 61° (ENE) 21:20:36 437.505
BEESAT 2 24 Jul 21:16:42 21:20:23 36° 312° (NW) 21:24:06 435.950
BEESAT 3 24 Jul 21:17:11 21:20:20 22° 316° (NW) 21:23:31 437.485
AIST 2 24 Jul 21:17:23 21:19:07 12° 109° (ESE) 21:20:50 435.215
YUBILEINY 24 Jul 21:19:44 21:28:28 58° 76° (ENE) 21:37:06 435.215
UWE-3 24 Jul 21:28:18 21:32:51 83° 255° (WSW) 21:37:32 435.000/436.395/437.385
HO-68 24 Jul 21:34:35 21:40:47 31° 265° (W) 21:47:04 435.675
ZACube-1 24 Jul 21:35:29 21:39:59 78° 77° (ENE) 21:44:35 437.345
FUNcube-1 24 Jul 21:36:12 21:40:41 75° 75° (ENE) 21:45:16 145.935
HUMSAT D 24 Jul 21:40:45 21:44:01 21° 66° (ENE) 21:47:16 437.325/437.525
AUBIESAT-1 24 Jul 21:42:07 21:45:43 44° 66° (ENE) 21:49:36 437.475
CUBEBUG 2 24 Jul 21:44:43 21:48:58 40° 263° (W) 21:53:24 437.445
DELFI C3 24 Jul 21:47:48 21:51:37 46° 73° (ENE) 21:55:27 145.870
SEEDS 24 Jul 21:49:16 21:52:08 17° 268° (W) 21:54:59 437.485
PHONESAT 2.4 24 Jul 21:51:28 21:54:23 40° 187° (S) 21:57:18 2401.200-2431.200
STRAND 1 24 Jul 22:00:49 22:04:39 22° 298° (WNW) 22:08:27 437.568
COMPASS 1 24 Jul 22:06:45 22:09:20 16° 269° (W) 22:11:55 437.405
Oscar 11 24 Jul 22:23:37 22:27:29 31° 264° (W) 22:31:24 145.826/435.025
PCSat 24 Jul 22:29:12 22:33:18 21° 319° (NW) 22:37:26 145.827
PRISM 24 Jul 22:38:25 22:42:15 39° 290° (WNW) 22:46:03 437.425
TIGRISAT 24 Jul 22:38:46 22:41:58 18° 91° (E) 22:45:06 435.000
AO-85 24 Jul 22:39:04 22:42:41 22° 40° (NE) 22:46:03 145.980
Cosmos 2491 24 Jul 22:42:37 22:51:20 85° 96° (E) 23:00:05 435.465 / 435.565
O/OREOS (USA 219) 24 Jul 22:45:59 22:50:02 33° 301° (WNW) 22:54:07 437.305
AISAT 24 Jul 22:46:08 22:48:07 13° 60° (ENE) 22:50:07 437.250
M-CUBED/EXP-1 PRIME 24 Jul 22:48:37 22:51:41 25° 261° (W) 22:55:00 437.505
AIST 2 24 Jul 22:52:56 22:57:02 69° 307° (NW) 23:01:10 435.215
UNISAT 6 24 Jul 22:53:37 22:57:34 27° 94° (E) 23:01:27 437.425
Cosmos 2504 24 Jul 22:55:12 23:03:32 75° 79° (E) 23:11:13 435.465 / 435.565
DX 1 24 Jul 22:56:23 22:57:53 12° 59° (ENE) 22:59:23 434.975-435.025
ESTCUBE 1 24 Jul 23:07:03 23:11:02 32° 68° (ENE) 23:15:02 437.505/2401.250
UKube-1 24 Jul 23:14:31 23:16:48 14° 61° (ENE) 23:19:06 .
HUMSAT D 24 Jul 23:15:22 23:19:23 38° 263° (W) 23:23:27 437.325/437.525
ZACube-1 24 Jul 23:15:34 23:16:51 11° 273° (W) 23:18:09 437.345
ISS 24 Jul 23:15:48 23:19:01 67° 145° (SE) 23:22:16 145.825
FUNcube-1 24 Jul 23:15:54 23:17:28 12° 272° (W) 23:19:03 145.935
YUBILEINY 24 Jul 23:17:13 23:24:47 33° 277° (W) 23:32:17 435.215
AUBIESAT-1 24 Jul 23:18:16 23:20:30 15° 265° (W) 23:22:50 437.475
DELFI C3 24 Jul 23:24:31 23:26:44 14° 269° (W) 23:28:56 145.870
PHONESAT 2.4 24 Jul 23:28:18 23:30:29 18° 203° (SSW) 23:32:39 2401.200-2431.200
ANTELSAT 24 Jul 23:31:45 23:36:25 65° 101° (E) 23:40:57 437.575/2403.000
POPSAT HIP 1 24 Jul 23:34:07 23:34:25 10° 88° (E) 23:34:43 437.405
VELOX 1 24 Jul 23:35:32 23:39:33 37° 69° (ENE) 23:43:36 145.980
CUBEBUG 1 24 Jul 23:43:56 23:48:06 50° 72° (ENE) 23:52:18 437.445
SPROUT 24 Jul 23:51:50 23:55:21 26° 67° (ENE) 23:58:55 437.525
QB50P2 24 Jul 23:51:57 23:54:55 18° 92° (E) 23:57:52 145.880/145.840
POLYITAN 1 24 Jul 23:54:33 23:57:35 18° 92° (E) 00:00:35 437.675
50 SAT 24 Jul 23:55:42 23:59:20 61° 74° (ENE) 00:02:58 437.505
TIGRISAT 25 Jul 00:14:25 00:18:57 49° 289° (WNW) 00:23:21 435.000
AO-85 25 Jul 00:19:10 00:23:27 50° 241° (WSW) 00:27:23 145.980
AISAT 25 Jul 00:19:39 00:24:01 72° 259° (WSW) 00:28:25 437.250
DX 1 25 Jul 00:29:07 00:33:26 80° 255° (WSW) 00:37:48 434.975-435.025
UNISAT 6 25 Jul 00:30:06 00:34:18 33° 292° (WNW) 00:38:24 437.425
AIST 2 25 Jul 00:34:36 00:36:18 12° 326° (NNW) 00:38:00 435.215
NANOSAT C BR1 25 Jul 00:39:28 00:43:41 52° 100° (E) 00:47:50 145.865
Cosmos 2491 25 Jul 00:42:52 00:49:20 23° 298° (WNW) 00:55:51 435.465 / 435.565
ESTCUBE 1 25 Jul 00:44:04 00:47:51 26° 265° (W) 00:51:39 437.505/2401.250
DUCHIFAT 1 25 Jul 00:45:07 00:49:20 56° 100° (E) 00:53:31 145.980
UKube-1 25 Jul 00:48:06 00:52:21 62° 258° (WSW) 00:56:39 .
Cosmos 2504 25 Jul 00:49:59 00:55:54 23° 282° (WNW) 01:01:32 435.465 / 435.565
ISS 25 Jul 00:52:48 00:55:40 28° 344° (NNW) 00:58:33 145.825
JAS-2 25 Jul 00:53:08 00:57:23 24° 95° (E) 01:01:50 435.910
TISAT 1 25 Jul 00:57:04 01:00:46 31° 69° (ENE) 01:04:30 437.305
QB50P1 25 Jul 01:00:13 01:04:32 88° 287° (WNW) 01:08:49 145.935-145.965
POPSAT HIP 1 25 Jul 01:06:25 01:10:44 77° 285° (WNW) 01:15:00 437.405
ANTELSAT 25 Jul 01:09:51 01:12:34 16° 299° (WNW) 01:15:16 437.575/2403.000
BUGSAT 1 25 Jul 01:11:04 01:15:12 48° 99° (E) 01:19:19 437.445
VELOX 1 25 Jul 01:12:44 01:16:08 22° 266° (W) 01:19:33 145.980
Oscar 19 25 Jul 01:17:04 01:17:42 10° 87° (E) 01:18:20 437.125/150
SWISSCUBE 25 Jul 01:17:24 01:19:57 15° 59° (ENE) 01:22:31 437.505
AIST 1 25 Jul 01:18:18 01:22:38 72° 81° (E) 01:26:58
CUBEBUG 1 25 Jul 01:22:06 01:24:41 15° 269° (W) 01:27:18 437.445
QB50P2 25 Jul 01:26:51 01:30:55 43° 289° (WNW) 01:34:58 145.880/145.840
SPROUT 25 Jul 01:27:25 01:31:12 30° 264° (W) 01:35:01 437.525
GONETS M04 25 Jul 01:28:12 01:33:48 18° 58° (ENE) 01:39:23
POLYITAN 1 25 Jul 01:29:30 01:33:35 42° 289° (WNW) 01:37:37 437.675
BEESAT 25 Jul 01:38:00 01:41:28 20° 63° (ENE) 01:44:56 436.000
ITUPSAT 1 25 Jul 01:58:28 02:02:38 30° 66° (ENE) 02:06:48 437.325
Cosmos 2499 25 Jul 02:03:45 02:09:03 19° 59° (ENE) 02:14:05 435.465 / 435.565
Gurwin Techsat 1B 25 Jul 02:13:23 02:16:51 17° 90° (E) 02:20:17 435.225
NANOSAT C BR1 25 Jul 02:16:20 02:19:00 16° 297° (WNW) 02:21:39 145.865
DUCHIFAT 1 25 Jul 02:22:06 02:24:35 15° 297° (WNW) 02:27:03 145.980
ISS 25 Jul 02:30:16 02:32:49 21° 4° (N) 02:35:22 145.825
TISAT 1 25 Jul 02:33:02 02:36:26 24° 265° (W) 02:39:53 437.305
JAS-2 25 Jul 02:37:46 02:42:41 44° 291° (WNW) 02:47:55 435.910
MOZHAYETS 4 25 Jul 02:44:18 02:45:55 12° 59° (ENE) 02:47:31
BUGSAT 1 25 Jul 02:47:26 02:50:13 17° 296° (WNW) 02:53:00 437.445
SWISSCUBE 25 Jul 02:52:21 02:57:08 75° 258° (WSW) 03:01:57 437.505
Oscar 19 25 Jul 02:52:35 02:57:47 84° 104° (ESE) 03:02:58 437.125/150
AIST 1 25 Jul 02:58:51 02:59:35 10° 278° (W) 03:00:19
AO-7 25 Jul 03:11:00 03:13:48 12° 85° (E) 03:16:36 29.400- 29.500
BEESAT 25 Jul 03:14:14 03:18:53 50° 260° (W) 03:23:34 436.000
STARS 25 Jul 03:15:07 03:16:31 11° 59° (ENE) 03:17:54 437.465
GONETS M04 25 Jul 03:23:23 03:32:13 79° 80° (E) 03:41:05
ITUPSAT 1 25 Jul 03:36:06 03:40:24 32° 264° (W) 03:44:43 437.325
CUSAT 1 25 Jul 03:47:19 03:50:16 18° 95° (E) 03:52:47 437.405
PCSat 25 Jul 03:48:05 03:51:38 17° 38° (NE) 03:55:09 145.827
Gurwin Techsat 1B 25 Jul 03:51:58 03:57:15 65° 288° (WNW) 04:02:30 435.225
BEESAT 3 25 Jul 03:54:37 03:58:22 39° 49° (NE) 04:02:06 437.485
Cosmos 2499 25 Jul 03:55:28 04:03:31 89° 79° (E) 04:10:55 435.465 / 435.565
BEESAT 2 25 Jul 03:55:43 03:59:04 25° 44° (NE) 04:02:24 435.950
KKS-1 25 Jul 04:02:08 04:06:30 64° 73° (ENE) 04:10:56 437.445
ISS 25 Jul 04:06:42 04:09:50 42° 23° (NNE) 04:12:58 145.825
MOZHAYETS 4 25 Jul 04:17:44 04:22:22 88° 256° (WSW) 04:27:03
ITAMSAT 1 25 Jul 04:21:15 04:26:29 82° 103° (ESE) 04:31:40 435.822/435.867
Oscar 19 25 Jul 04:33:40 04:36:24 15° 302° (WNW) 04:39:09 437.125/150
STARS 25 Jul 04:47:48 04:52:11 84° 256° (WSW) 04:56:38 437.465
AO-7 25 Jul 04:59:50 05:08:10 65° 105° (ESE) 05:16:24 29.400- 29.500
HORYU 2 25 Jul 05:16:57 05:19:57 17° 92° (E) 05:22:56 437.375
GONETS M04 25 Jul 05:21:38 05:28:02 23° 281° (W) 05:34:29
DANDE 25 Jul 05:25:07 05:31:06 86° 100° (E) 05:35:32 436.750
CUSAT 1 25 Jul 05:28:28 05:32:11 28° 283° (WNW) 05:35:11 437.405
CUBESAT XI-V 25 Jul 05:30:19 05:34:54 66° 74° (ENE) 05:39:28 437.345
PCSat 25 Jul 05:30:27 05:35:55 80° 59° (ENE) 05:41:19 145.827
BEESAT 3 25 Jul 05:32:48 05:35:49 21° 247° (WSW) 05:38:48 437.485
BEESAT 2 25 Jul 05:33:17 05:36:59 37° 243° (WSW) 05:40:41 435.950
AIST 2 25 Jul 05:35:22 05:38:12 17° 39° (NE) 05:41:02 435.215
KKS-1 25 Jul 05:41:25 05:43:30 13° 270° (W) 05:45:36 437.445
ISS 25 Jul 05:43:16 05:46:11 30° 221° (SW) 05:49:06 145.825
Cosmos 2499 25 Jul 05:50:39 05:55:19 17° 284° (WNW) 05:59:50 435.465 / 435.565
ITAMSAT 1 25 Jul 06:02:25 06:05:15 15° 302° (WNW) 06:08:06 435.822/435.867
STRAND 1 25 Jul 06:02:27 06:04:40 13° 57° (ENE) 06:06:54 437.568
NOAA 15 25 Jul 06:11:24 06:14:30 16° 90° (E) 06:17:34 137.62
BRITE-PL 25 Jul 06:22:11 06:26:06 25° 95° (E) 06:30:14 437.365/2234.400
RS-15 25 Jul 06:35:15 06:44:41 31° 103° (ESE) 06:54:28 29.354- 29.394
LilacSat-2 25 Jul 06:37:25 06:39:53 16° 92° (E) 06:42:20 437.200
HORYU 2 25 Jul 06:52:26 06:56:46 48° 289° (WNW) 07:01:03 437.375
AO-7 25 Jul 06:53:16 07:00:24 33° 305° (NW) 07:07:31 29.400- 29.500
Cubesat XI-IV 25 Jul 06:57:15 07:01:59 31° 96° (E) 07:06:40 437.490
CUBESAT XI-V 25 Jul 07:10:28 07:12:43 13° 271° (W) 07:14:59 437.345
DANDE 25 Jul 07:12:37 07:13:59 11° 291° (WNW) 07:15:16 436.750
AIST 2 25 Jul 07:12:59 07:17:09 70° 239° (WSW) 07:21:17 435.215
O/OREOS (USA 219) 25 Jul 07:14:42 07:19:13 64° 64° (ENE) 07:23:44 437.305
PCSat 25 Jul 07:15:36 07:18:35 15° 256° (WSW) 07:21:33 145.827
CUTE-I 25 Jul 07:21:24 07:26:38 51° 100° (E) 07:31:47 437.470
GOMX 1 25 Jul 07:36:19 07:41:14 62° 101° (E) 07:46:28 467.674
NOAA 18 25 Jul 07:37:00 07:42:33 68° 103° (ESE) 07:48:03 137.9125
STRAND 1 25 Jul 07:37:54 07:43:03 86° 77° (ENE) 07:48:15 437.568
DOVE 4 25 Jul 07:41:45 07:46:25 35° 96° (E) 07:51:11 437.250
NOAA 15 25 Jul 07:49:33 07:54:47 70° 287° (WNW) 08:00:01 137.62
PRISM 25 Jul 07:55:08 07:57:46 17° 64° (ENE) 08:00:23 437.425
BRITE-PL 25 Jul 08:00:17 08:04:40 39° 289° (WNW) 08:09:20 437.365/2234.400
LilacSat-2 25 Jul 08:10:44 08:14:22 39° 288° (WNW) 08:17:58 437.200
CINEMA 3 25 Jul 08:11:31 08:15:19 21° 92° (E) 08:19:06 145.822/145.860
CANX-2 25 Jul 08:33:01 08:36:36 26° 95° (E) 08:40:09 2200.000
YUBILEINY 25 Jul 08:33:03 08:35:39 12° 71° (ENE) 08:38:16 435.215
Cubesat XI-IV 25 Jul 08:37:11 08:42:05 37° 293° (WNW) 08:46:56 437.490
AAUSAT CUBESAT 2 25 Jul 08:43:38 08:45:03 11° 89° (E) 08:46:27 437.432
RS-15 25 Jul 08:44:19 08:55:52 80° 306° (NW) 09:08:07 29.354- 29.394
CUTE 1.7 + AOD 2 25 Jul 08:46:46 08:50:34 32° 96° (E) 08:54:21 437.475
Cosmos 2491 25 Jul 08:51:22 08:59:42 46° 73° (ENE) 09:08:01 435.465 / 435.565
O/OREOS (USA 219) 25 Jul 08:55:50 08:58:04 14° 262° (W) 09:00:17 437.305
SO-50 25 Jul 08:59:20 09:03:55 41° 117° (ESE) 09:08:29 436.795
HO-68 25 Jul 08:59:22 09:06:21 50° 100° (E) 09:13:16 435.675
CUTE-I 25 Jul 09:02:09 09:06:20 24° 298° (WNW) 09:10:29 437.470
GOMX 1 25 Jul 09:15:32 09:18:55 19° 296° (WNW) 09:22:25 467.674
UWE-3 25 Jul 09:17:35 09:20:55 19° 91° (E) 09:24:10 435.000/436.395/437.385
NOAA 18 25 Jul 09:18:46 09:22:40 20° 301° (WNW) 09:26:32 137.9125
DOVE 4 25 Jul 09:19:32 09:24:00 32° 292° (WNW) 09:28:36 437.250
STRAND 1 25 Jul 09:20:57 09:22:53 12° 272° (W) 09:24:50 437.568
ZACube-1 25 Jul 09:24:07 09:26:35 14° 89° (E) 09:29:00 437.345
FUNcube-1 25 Jul 09:24:41 09:26:56 13° 89° (E) 09:29:07 145.935
PRISM 25 Jul 09:28:49 09:32:44 45° 260° (W) 09:36:40 437.425
SEEDS 25 Jul 09:30:01 09:34:12 70° 101° (ESE) 09:38:20 437.485
NOAA 15 25 Jul 09:32:23 09:33:37 11° 306° (NW) 09:34:51 137.62
CUBEBUG 2 25 Jul 09:33:57 09:38:27 41° 97° (E) 09:42:49 437.445
TIGRISAT 25 Jul 09:38:42 09:42:03 20° 63° (ENE) 09:45:25 435.000
COMPASS 1 25 Jul 09:46:10 09:50:18 75° 101° (E) 09:54:25 437.405
Cosmos 2504 25 Jul 09:47:11 09:50:17 12° 71° (ENE) 09:53:21 435.465 / 435.565
CINEMA 3 25 Jul 09:47:50 09:52:41 49° 289° (WNW) 09:57:30 145.822/145.860
UNISAT 6 25 Jul 09:53:33 09:57:29 29° 67° (ENE) 10:01:31 437.425
CANX-2 25 Jul 10:08:49 10:12:25 28° 292° (WNW) 10:16:01 2200.000
Oscar 11 25 Jul 10:08:55 10:13:01 41° 98° (E) 10:17:05 145.826/435.025
AAUSAT CUBESAT 2 25 Jul 10:16:52 10:20:56 62° 286° (WNW) 10:24:59 437.432
YUBILEINY 25 Jul 10:21:54 10:30:30 63° 92° (E) 10:39:11 435.215
CUTE 1.7 + AOD 2 25 Jul 10:22:54 10:26:16 23° 293° (WNW) 10:29:36 437.475
M-CUBED/EXP-1 PRIME 25 Jul 10:25:45 10:29:13 20° 98° (E) 10:32:42 437.505
POPSAT HIP 1 25 Jul 10:28:22 10:28:58 10° 59° (ENE) 10:29:34 437.405
ANTELSAT 25 Jul 10:31:21 10:35:55 66° 74° (ENE) 10:40:36 437.575/2403.000
SO-50 25 Jul 10:40:10 10:44:30 31° 316° (NW) 10:48:50 436.795
QB50P2 25 Jul 10:46:16 10:49:03 17° 63° (ENE) 10:51:52 145.880/145.840
HO-68 25 Jul 10:47:27 10:53:51 36° 299° (WNW) 11:00:13 435.675
Cosmos 2491 25 Jul 10:48:27 10:56:27 42° 273° (W) 11:04:29 435.465 / 435.565
POLYITAN 1 25 Jul 10:48:51 10:51:41 18° 64° (ENE) 10:54:33 437.675
UWE-3 25 Jul 10:53:10 10:57:37 46° 289° (WNW) 11:01:57 435.000/436.395/437.385
AUBIESAT-1 25 Jul 10:53:23 10:57:30 31° 101° (E) 11:01:36 437.475
HUMSAT D 25 Jul 10:57:28 11:01:10 29° 95° (E) 11:04:49 437.325/437.525
DELFI C3 25 Jul 10:58:32 11:02:27 65° 101° (E) 11:06:22 145.870
ZACube-1 25 Jul 10:58:47 11:03:17 59° 287° (WNW) 11:07:38 437.345
FUNcube-1 25 Jul 10:59:07 11:03:37 62° 286° (WNW) 11:07:58 145.935
RS-15 25 Jul 11:00:08 11:10:36 34° 336° (NNW) 11:21:29 29.354- 29.394
SEEDS 25 Jul 11:07:44 11:09:19 12° 299° (WNW) 11:10:54 437.485
JAS-2 25 Jul 11:09:29 11:12:21 14° 58° (ENE) 11:15:06 435.910
CUBEBUG 2 25 Jul 11:11:03 11:14:49 24° 295° (WNW) 11:18:30 437.445
TIGRISAT 25 Jul 11:13:54 11:18:21 49° 261° (W) 11:22:55 435.000
COMPASS 1 25 Jul 11:24:03 11:25:16 11° 299° (WNW) 11:26:30 437.405
UNISAT 6 25 Jul 11:29:58 11:34:06 32° 264° (W) 11:38:19 437.425
NANOSAT C BR1 25 Jul 11:32:42 11:36:43 45° 71° (ENE) 11:40:48 145.865
Cosmos 2504 25 Jul 11:33:09 11:41:49 63° 92° (E) 11:50:30 435.465 / 435.565
DUCHIFAT 1 25 Jul 11:38:03 11:42:06 48° 72° (ENE) 11:46:12 145.980
Oscar 11 25 Jul 11:45:44 11:48:52 20° 295° (WNW) 11:52:00 145.826/435.025
QB50P1 25 Jul 11:53:35 11:57:48 81° 76° (ENE) 12:02:06 145.935-145.965
